Погода в Гонде

Россия / Республика Бурятия     52°31′55″N   111°14′22″E
темп.,
°C
ветер,
м/с
пор.,
м/с
влажн.,
%
обл.,
%
осадки,
мм/ч
давл.,
гПа
погр.,
м
27 октября, ср
ср2723:00−1зюз228228 0.0 102021
02:00−2зюз23855 0.0 102043
05:00−2зюз358662 0.0 102175
08:00−2юз228373 0.0 102141
11:00+3зюз245793 0.0 1019300
14:00+6зюз3548100 0.0 1016376
17:00+2зюз11645 0.0 101610
20:00+1юз11695 0.0 101710
28 октября, чт
чт2823:000зюз227356 0.0 101911
02:00−1зюз227719 0.0 102027
05:00−2з2279100 0.0 102126
08:00−2зюз2280100 0.0 102222
11:00+3зюз2259100 0.0 1020222
14:00+5з2251100 0.0 1018369
17:00+2зюз1167100 0.0 101910
20:00+1з2266100 0.0 102120
29 октября, пт
пт2923:00+1зсз41170100 0.0 1023492
02:00−1зсз51157100 0.0 1026557
05:00−3зсз51067100 0.0 1028527
08:00−5з38665 0.0 1031298
11:000зсз34355 0.0 1032827
14:00+2зсз34285 0.0 10301116
17:00−2зсз22410 0.0 103210
20:00−4з11470 0.0 103410
30 октября, сб
сб3023:00−5зюз11510 0.0 103510
02:00−5юз11530 0.0 103611
05:00−6зюз22540 0.0 103612
08:00−7юз11555 0.0 103715
11:00−1юз353618 0.0 1035374
14:00+2зюз463051 0.0 1032549
17:00−2юз224225 0.0 103211
20:00−3юз224555 0.0 103211
31 октября, вс
вс3123:00−4юз12475 0.0 103111
02:00−4юз115022 0.0 103010
05:00−4юз1151100 0.0 102910
08:00−4юз1151100 0.0 102810
11:00+1юз2439100 0.0 1026280
14:00+3зюз574023 0.0 1024737
17:00−1зюз3357100 0.0 102430
20:00−2зюз2263100 0.0 102519